Regional Weather Roundup
Issued by NWS Kansas City/Pleasant Hill, MO

Home | Current Version | Previous Version | Text Only | Print | Product List | Glossary On
Versions: 1 2 3 4 5 6 7 8 9 10 11 12 13 14 15 16 17 18 19 20 21 22 23 24 25 26 27 28 29 30 31 32 33 34 35 36 37 38 39 40 41 42 43 44 45 46 47 48 49 50
000
ASUS43 KEAX 151010
RWREAX

WEATHER ROUNDUP FOR EASTERN KANSAS AND NORTHWEST MISSOURI
NATIONAL WEATHER SERVICE KANSAS CITY/PLEASANT HILL MO
500 AM CDT WED AUG 15 2018

KSZ040-057-103>105-MOZ028-029-037-043-151100-
...KANSAS CITY METROPOLITAN AREA...

CITY           SKY/WX    TMP DP  RH WIND       PRES   REMARKS
K.C. INTL      CLOUDY    72  71  97 S3        29.86F
K.C. DOWNTOWN  CLOUDY    74  70  87 S6        29.85F
LEES SUMMIT    CLOUDY    73  72  96 S7        29.87F
OLATHE - IXD   CLOUDY    73  71  93 SW10      29.87F
OLATHE - OJC   CLOUDY    71  71 100 SW3       29.87S
LAWRENCE       CLOUDY    73  71  93 CALM      29.85F

$$

MOZ001>008-011>017-020>025-030>033-038>040-044>046-053-054-151100-
...NORTHERN AND CENTRAL MISSOURI...

CITY           SKY/WX    TMP DP  RH WIND       PRES   REMARKS
ST. JOSEPH     CLOUDY    71  71 100 CALM      29.85F
MOSBY          CLOUDY    72  70  94 CALM      29.86F FOG
WARRENSBURG    CLOUDY    72  68  88 S5        29.87F
WHITEMAN AFB   CLOUDY    72  70  95 S6        29.83F
CLINTON        CLOUDY    72  70  94 S3        29.88F
SEDALIA        MOCLDY    72  70  93 S8        29.89F
WARSAW         NOT AVBL
CHILLICOTHE      N/A     70  69  97 CALM      29.88F
KIRKSVILLE     PTCLDY    67  66  97 CALM      29.90F

$$

MOZ041-047>049-056>058-063>065-088>090-097-151100-
...EASTERN AND SOUTHERN MISSOURI...

CITY           SKY/WX    TMP DP  RH WIND       PRES   REMARKS
ST. LOUIS INTL CLOUDY    73  70  90 S7        29.93S
SPIRIT OF STL  CLOUDY    72  70  93 CALM      29.91S
COLUMBIA       CLOUDY    72  69  90 S9        29.90S
JEFFERSON CITY CLOUDY    72  69  90 S5        29.88F
ROLLA          HVY RAIN  68  67  96 S9        29.93F VSB 1
OSAGE BEACH    LGT RAIN  70  69  97 S7        29.91F
SPRINGFIELD    CLOUDY    70  68  93 CALM      29.92R
BRANSON        LGT RAIN  70  70 100 NW3       29.96R
JOPLIN         MOCLDY    71  69  93 SW7       29.90S
WEST PLAINS    CLOUDY    72  70  93 S9        29.93F

$$

IAZ060-094-KSZ022-034>040-054-083-096-NEZ052-066-093-151100-
...KANSAS...SOUTHEAST NEBRASKA AND IOWA...

CITY           SKY/WX    TMP DP  RH WIND       PRES   REMARKS
TOPEKA         CLOUDY    73  72  96 SW3       29.85F
MANHATTAN      CLOUDY    72  71  97 VRB3      29.87S
EMPORIA        CLOUDY    71  69  93 W5        29.87F
CHANUTE        MOCLDY    71  71 100 SW13      29.88F
WICHITA        MOCLDY    71  70  96 NW9       29.89F
OMAHA          LGT RAIN  70  67  90 N9        29.88S
LINCOLN        LGT RAIN  68  66  93 N15       29.89F
FALLS CITY     LGT RAIN  68  68 100 NW7       29.85F VSB 1
LAMONI         CLOUDY    68  66  93 CALM      29.88F
DES MOINES     CLOUDY    70  70 100 E5        29.88F

$$




USA.gov is the U.S. government's official web portal to all federal, state and local government web resources and services.